Home   Weather   Lüdenscheid   Past weeks

Flag for Germany Past Weather in Lüdenscheid, North Rhine-Westphalia, Germany — Yesterday and Last 2 Weeks

Now
63 °F

Sunny.


Feels Like: 63 °F
Forecast: 51 / 58 °F
Wind: 15 mph from Southwest

Location: Dortmund / Wickede

Current Time: Sep 29, 2016 at 10:37:03 AM

Latest Report: Sep 29, 2016 at 9:50 AM


Visibility: 10 mi

Pressure: 30.04 "Hg

Humidity: 68%

Dew Point: 52 °F

Location of LüdenscheidLocation

Past Weather in Lüdenscheid — Graph

°F

Lüdenscheid Temperature Yesterday

Maximum temperature yesterday: 70 °F (at 4:20 PM)
Minimum temperature yesterday: 59 °F (at 5:20 AM)
Average temperature yesterday: 63 °F

High & Low Weather Summary for the Past Weeks

 TemperatureHumidityPressure
High88 °F (Sep 14, 1:50 PM)88% (Sep 16, 6:20 AM)30.30 "Hg (Sep 16, 6:20 AM)
Low45 °F (Sep 21, 6:20 AM)23% (Sep 15, 2:50 PM)29.80 "Hg (Sep 15, 3:50 PM)
Average63 °F58%30.09 "Hg
* Reported Sep 14 8:20 AM — Sep 29 8:50 AM, Lüdenscheid, Weather by CustomWeather, © 2016

Note: Actual official high and low records may vary slightly from our data, if they occured in-between our weather recording intervals... More about our weather records

Advertising

Lüdenscheid Weather History for the Previous 24 Hours

Scroll right to see more
 ConditionsComfort  
Time TempWeatherWind HumidityBarometerVisibility
8:50 AM
Thu, Sep 29
61 °FSunny.13 mph72%30.07 "Hg10 mi
8:20 AM61 °FSunny.13 mph72%30.07 "Hg10 mi
7:50 AM61 °FSunny.15 mph68%30.07 "Hg10 mi
7:20 AM61 °FClear.14 mph68%30.07 "Hg10 mi
6:50 AM61 °FClear.14 mph68%30.09 "Hg10 mi
6:20 AM61 °FClear.12 mph68%30.09 "Hg10 mi
5:50 AM61 °FClear.14 mph68%30.09 "Hg10 mi
5:20 AM61 °FClear.15 mph68%30.12 "Hg10 mi
9:50 PM
Wed, Sep 28
64 °FClear.13 mph60%30.21 "Hg10 mi
9:20 PM63 °FClear.13 mph64%30.21 "Hg10 mi
8:50 PM64 °FClear.12 mph60%30.21 "Hg10 mi
8:20 PM64 °FClear.10 mph56%30.21 "Hg10 mi
7:50 PM64 °FClear.14 mph56%30.21 "Hg10 mi
7:20 PM66 °FClear.12 mph52%30.21 "Hg10 mi
6:50 PM66 °FSunny.16 mph52%30.21 "Hg10 mi
6:20 PM68 °FSunny.14 mph49%30.21 "Hg10 mi
5:50 PM68 °FSunny.14 mph49%30.21 "Hg10 mi
5:20 PM70 °FPassing clouds.16 mph46%30.21 "HgN/A
4:50 PM70 °FSunny.14 mph50%30.21 "Hg10 mi
4:20 PM70 °FSunny.16 mph50%30.21 "Hg10 mi
3:50 PM66 °FSunny.16 mph56%30.21 "Hg10 mi
3:20 PM66 °FSunny.16 mph60%30.21 "Hg10 mi
2:50 PM66 °FPassing clouds.16 mph60%30.24 "HgN/A
2:20 PM66 °FScattered clouds.15 mph60%30.24 "HgN/A
1:50 PM64 °FScattered clouds.17 mph64%30.24 "HgN/A
1:20 PM64 °FScattered clouds.16 mph64%30.24 "HgN/A
12:50 PM63 °FPartly sunny.18 mph68%30.24 "HgN/A
12:20 PM61 °FPartly sunny.16 mph72%30.24 "HgN/A
11:50 AM61 °FPartly sunny.15 mph72%30.24 "HgN/A
11:20 AM61 °FPartly sunny.15 mph72%30.27 "HgN/A
10:50 AM61 °FPartly sunny.17 mph72%30.27 "HgN/A
10:20 AM61 °FPartly sunny.17 mph68%30.24 "HgN/A
Weather by CustomWeather, © 2016

See weather overviewHow to use our weather pages